Time,TemperatureF,DewpointF,PressureIn,WindDirection,WindDirectionDegrees,WindSpeedMPH,WindSpeedGustMPH,Humidity,HourlyPrecipIn,Conditions,Clouds,dailyrainin,SoftwareType,DateUTC
2013-02-25 00:04:00,29.3,21.1,29.35,ENE,69,5.0,5.0,71,0.00,CLR,,0.00,WeatherDisplay:10.37,2013-02-25 06:04:00,
2013-02-25 00:09:00,29.3,21.1,29.35,ENE,68,5.0,5.0,71,0.00,CLR,,0.00,WeatherDisplay:10.37,2013-02-25 06:09:00,
2013-02-25 00:14:00,29.3,21.1,29.35,ENE,69,5.0,5.0,71,0.00,CLR,,0.00,WeatherDisplay:10.37,2013-02-25 06:14:00,
2013-02-25 00:19:00,29.3,21.1,29.35,ENE,67,5.0,5.0,71,0.00,CLR,,0.00,WeatherDisplay:10.37,2013-02-25 06:19:00,
2013-02-25 00:24:00,29.3,21.1,29.35,ENE,64,5.0,5.0,71,0.00,CLR,,0.00,WeatherDisplay:10.37,2013-02-25 06:24:00,
2013-02-25 00:29:00,29.3,21.1,29.35,ENE,65,5.0,5.0,71,0.00,CLR,,0.00,WeatherDisplay:10.37,2013-02-25 06:29:00,
2013-02-25 00:34:00,29.3,21.1,29.35,ENE,60,5.0,5.0,71,0.00,CLR,,0.00,WeatherDisplay:10.37,2013-02-25 06:34:00,
2013-02-25 00:39:00,29.3,21.1,29.35,ENE,57,5.0,5.0,71,0.00,CLR,,0.00,WeatherDisplay:10.37,2013-02-25 06:39:00,
2013-02-25 00:44:00,29.3,21.1,29.35,NE,53,5.0,5.0,71,0.00,CLR,,0.00,WeatherDisplay:10.37,2013-02-25 06:44:00,
2013-02-25 00:49:00,26.8,21.1,29.35,NE,50,5.0,5.0,79,0.00,CLR,,0.00,WeatherDisplay:10.37,2013-02-25 06:49:00,
2013-02-25 00:54:00,26.2,20.6,29.35,NE,50,5.0,5.0,79,0.00,CLR,,0.00,WeatherDisplay:10.37,2013-02-25 06:54:00,
2013-02-25 00:59:00,26.2,20.6,29.35,NE,49,5.0,5.0,79,0.00,CLR,,0.00,WeatherDisplay:10.37,2013-02-25 06:59:00,
2013-02-25 01:04:00,26.8,21.1,29.35,NE,50,5.0,5.0,79,0.00,CLR,,0.00,WeatherDisplay:10.37,2013-02-25 07:04:00,
2013-02-25 01:09:00,26.8,21.1,29.35,NE,50,5.0,5.0,79,0.00,CLR,,0.00,WeatherDisplay:10.37,2013-02-25 07:09:00,
2013-02-25 01:14:00,26.8,21.1,29.35,NE,50,5.0,5.0,79,0.00,CLR,,0.00,WeatherDisplay:10.37,2013-02-25 07:14:00,
2013-02-25 01:19:00,25.7,20.1,29.35,NE,50,5.0,5.0,79,0.00,CLR,,0.00,WeatherDisplay:10.37,2013-02-25 07:19:00,
2013-02-25 01:24:00,25.7,20.1,29.35,NE,50,5.0,5.0,79,0.00,CLR,,0.00,WeatherDisplay:10.37,2013-02-25 07:24:00,
2013-02-25 01:29:00,25.3,19.7,29.35,NE,53,3.0,5.0,79,0.00,CLR,,0.00,WeatherDisplay:10.37,2013-02-25 07:29:00,
2013-02-25 01:34:00,25.2,19.6,29.35,NE,55,3.0,4.0,79,0.00,CLR,,0.00,WeatherDisplay:10.37,2013-02-25 07:34:00,
2013-02-25 01:39:00,25.2,19.6,29.35,NE,55,3.0,3.0,79,0.00,CLR,,0.00,WeatherDisplay:10.37,2013-02-25 07:39:00,
2013-02-25 01:44:00,25.2,19.6,29.35,NE,55,2.0,3.0,79,0.00,CLR,,0.00,WeatherDisplay:10.37,2013-02-25 07:44:00,
2013-02-25 01:49:00,25.3,20.0,29.35,NE,55,2.0,2.0,80,0.00,CLR,,0.00,WeatherDisplay:10.37,2013-02-25 07:49:00,
2013-02-25 01:54:00,25.3,20.0,29.35,NE,55,1.0,2.0,80,0.00,CLR,,0.00,WeatherDisplay:10.37,2013-02-25 07:54:00,
2013-02-25 01:59:00,25.5,20.2,29.35,NE,55,1.0,2.0,80,0.00,CLR,,0.00,WeatherDisplay:10.37,2013-02-25 07:59:00,
2013-02-25 02:04:00,25.3,20.0,29.35,NE,55,1.0,2.0,80,0.00,CLR,,0.00,WeatherDisplay:10.37,2013-02-25 08:04:00,
2013-02-25 02:09:00,25.5,20.2,29.35,NE,51,1.0,2.0,80,0.00,CLR,,0.00,WeatherDisplay:10.37,2013-02-25 08:09:00,
2013-02-25 02:14:00,25.9,20.6,29.35,NE,45,2.0,2.0,80,0.00,CLR,,0.00,WeatherDisplay:10.37,2013-02-25 08:14:00,
2013-02-25 02:19:00,25.9,20.6,29.35,NE,43,2.0,2.0,80,0.00,CLR,,0.00,WeatherDisplay:10.37,2013-02-25 08:19:00,
2013-02-25 02:24:00,25.7,20.4,29.35,NE,41,2.0,2.0,80,0.00,CLR,,0.00,WeatherDisplay:10.37,2013-02-25 08:24:00,
2013-02-25 02:29:00,25.7,20.4,29.35,NE,40,2.0,3.0,80,0.00,CLR,,0.00,WeatherDisplay:10.37,2013-02-25 08:29:00,
2013-02-25 02:34:00,25.5,20.2,29.35,NE,40,2.0,3.0,80,0.00,CLR,,0.00,WeatherDisplay:10.37,2013-02-25 08:34:00,
2013-02-25 02:39:00,25.5,20.2,29.35,NE,40,2.0,3.0,80,0.00,CLR,,0.00,WeatherDisplay:10.37,2013-02-25 08:39:00,
2013-02-25 02:44:00,25.7,20.4,29.35,NE,42,3.0,3.0,80,0.00,CLR,,0.00,WeatherDisplay:10.37,2013-02-25 08:44:00,
2013-02-25 02:54:00,25.5,20.2,29.35,NE,49,3.0,3.0,80,0.00,CLR,,0.00,WeatherDisplay:10.37,2013-02-25 08:54:00,
2013-02-25 02:59:00,25.2,19.9,29.35,NE,46,3.0,3.0,80,0.00,CLR,,0.00,WeatherDisplay:10.37,2013-02-25 08:59:00,
2013-02-25 03:04:00,25.3,20.3,29.35,NE,45,3.0,3.0,81,0.00,CLR,,0.00,WeatherDisplay:10.37,2013-02-25 09:04:00,
2013-02-25 03:09:00,25.0,20.0,29.35,NE,45,3.0,3.0,81,0.00,CLR,,0.00,WeatherDisplay:10.37,2013-02-25 09:09:00,
2013-02-25 03:14:00,25.0,20.0,29.35,NE,45,3.0,3.0,81,0.00,CLR,,0.00,WeatherDisplay:10.37,2013-02-25 09:14:00,
2013-02-25 03:19:00,25.3,20.3,29.35,NE,45,3.0,3.0,81,0.00,CLR,,0.00,WeatherDisplay:10.37,2013-02-25 09:19:00,
2013-02-25 03:24:00,25.2,20.1,29.35,NE,45,3.0,3.0,81,0.00,CLR,,0.00,WeatherDisplay:10.37,2013-02-25 09:24:00,
2013-02-25 03:29:00,25.0,20.0,29.35,NE,45,2.0,3.0,81,0.00,CLR,,0.00,WeatherDisplay:10.37,2013-02-25 09:29:00,
2013-02-25 03:34:00,25.0,20.0,29.35,NE,45,2.0,3.0,81,0.00,CLR,,0.00,WeatherDisplay:10.37,2013-02-25 09:34:00,
2013-02-25 03:39:00,25.0,20.0,29.35,NE,45,2.0,2.0,81,0.00,CLR,,0.00,WeatherDisplay:10.37,2013-02-25 09:39:00,
2013-02-25 03:44:00,25.0,20.3,29.35,NE,45,2.0,2.0,82,0.00,CLR,,0.00,WeatherDisplay:10.37,2013-02-25 09:44:00,
2013-02-25 03:49:00,25.0,20.3,29.35,NE,45,1.0,2.0,82,0.00,CLR,,0.00,WeatherDisplay:10.37,2013-02-25 09:49:00,
2013-02-25 03:54:00,25.0,20.3,29.35,NE,45,1.0,1.0,82,0.00,CLR,,0.00,WeatherDisplay:10.37,2013-02-25 09:54:00,
2013-02-25 03:59:00,25.2,20.4,29.35,NE,45,1.0,1.0,82,0.00,CLR,,0.00,WeatherDisplay:10.37,2013-02-25 09:59:00,
2013-02-25 04:04:00,25.2,20.4,29.35,ENE,68,1.0,1.0,82,0.00,CLR,,0.00,WeatherDisplay:10.37,2013-02-25 10:04:00,
2013-02-25 04:09:00,25.2,20.4,29.35,East,81,1.0,2.0,82,0.00,CLR,,0.00,WeatherDisplay:10.37,2013-02-25 10:09:00,
2013-02-25 04:14:00,25.0,20.3,29.35,East,90,2.0,2.0,82,0.00,CLR,,0.00,WeatherDisplay:10.37,2013-02-25 10:14:00,
2013-02-25 04:19:00,25.0,20.3,29.35,East,101,2.0,3.0,82,0.00,CLR,,0.00,WeatherDisplay:10.37,2013-02-25 10:19:00,
2013-02-25 04:24:00,25.3,20.6,29.35,ESE,105,2.0,3.0,82,0.00,CLR,,0.00,WeatherDisplay:10.37,2013-02-25 10:24:00,
2013-02-25 04:29:00,25.0,20.5,29.35,East,94,3.0,3.0,83,0.00,CLR,,0.00,WeatherDisplay:10.37,2013-02-25 10:29:00,
2013-02-25 04:34:00,25.0,20.5,29.35,East,85,3.0,3.0,83,0.00,CLR,,0.00,WeatherDisplay:10.37,2013-02-25 10:34:00,
2013-02-25 04:39:00,24.8,20.4,29.35,East,85,3.0,3.0,83,0.00,CLR,,0.00,WeatherDisplay:10.37,2013-02-25 10:39:00,
2013-02-25 04:44:00,25.3,20.9,29.35,East,85,3.0,3.0,83,0.00,CLR,,0.00,WeatherDisplay:10.37,2013-02-25 10:44:00,
2013-02-25 04:49:00,25.5,21.1,29.35,ESE,106,3.0,3.0,83,0.00,CLR,,0.00,WeatherDisplay:10.37,2013-02-25 10:49:00,
2013-02-25 04:54:00,25.5,21.1,29.35,ESE,113,3.0,3.0,83,0.00,CLR,,0.00,WeatherDisplay:10.37,2013-02-25 10:54:00,
2013-02-25 04:59:00,25.5,21.1,29.35,ESE,110,3.0,3.0,83,0.00,CLR,,0.00,WeatherDisplay:10.37,2013-02-25 10:59:00,
2013-02-25 05:04:00,25.7,21.3,29.35,ESE,110,3.0,3.0,83,0.00,CLR,,0.00,WeatherDisplay:10.37,2013-02-25 11:04:00,
2013-02-25 05:09:00,25.9,21.4,29.35,ESE,106,3.0,3.0,83,0.00,CLR,,0.00,WeatherDisplay:10.37,2013-02-25 11:09:00,
2013-02-25 05:14:00,26.1,21.6,29.35,East,92,3.0,3.0,83,0.00,CLR,,0.00,WeatherDisplay:10.37,2013-02-25 11:14:00,
2013-02-25 05:19:00,26.4,22.0,29.35,East,82,3.0,3.0,83,0.00,CLR,,0.00,WeatherDisplay:10.37,2013-02-25 11:19:00,
2013-02-25 05:24:00,26.4,22.0,29.35,ENE,77,3.0,4.0,83,0.00,CLR,,0.00,WeatherDisplay:10.37,2013-02-25 11:24:00,
2013-02-25 05:29:00,26.2,21.8,29.35,ENE,61,3.0,4.0,83,0.00,CLR,,0.00,WeatherDisplay:10.37,2013-02-25 11:29:00,
2013-02-25 05:34:00,25.7,21.3,29.35,NE,48,3.0,4.0,83,0.00,CLR,,0.00,WeatherDisplay:10.37,2013-02-25 11:34:00,
2013-02-25 05:39:00,25.3,20.6,29.35,NE,40,3.0,4.0,82,0.00,CLR,,0.00,WeatherDisplay:10.37,2013-02-25 11:39:00,
2013-02-25 05:44:00,25.3,20.6,29.35,NE,51,3.0,4.0,82,0.00,CLR,,0.00,WeatherDisplay:10.37,2013-02-25 11:44:00,
2013-02-25 05:49:00,25.9,21.1,29.32,East,92,5.0,5.0,82,0.00,CLR,,0.00,WeatherDisplay:10.37,2013-02-25 11:49:00,
2013-02-25 05:54:00,26.4,21.7,29.32,East,100,5.0,5.0,82,0.00,CLR,,0.00,WeatherDisplay:10.37,2013-02-25 11:54:00,
2013-02-25 05:59:00,27.1,22.4,29.32,ESE,102,6.0,6.0,82,0.00,CLR,,0.00,WeatherDisplay:10.37,2013-02-25 11:59:00,
2013-02-25 06:04:00,27.3,22.5,29.32,East,97,7.0,7.0,82,0.00,CLR,,0.00,WeatherDisplay:10.37,2013-02-25 12:04:00,
2013-02-25 06:09:00,27.1,22.4,29.32,East,95,7.0,7.0,82,0.00,CLR,,0.00,WeatherDisplay:10.37,2013-02-25 12:09:00,
2013-02-25 06:14:00,27.0,21.9,29.32,East,95,8.0,8.0,81,0.00,CLR,,0.00,WeatherDisplay:10.37,2013-02-25 12:14:00,
2013-02-25 06:19:00,27.0,21.9,29.35,East,91,8.0,8.0,81,0.00,CLR,,0.00,WeatherDisplay:10.37,2013-02-25 12:19:00,
2013-02-25 06:24:00,26.8,21.7,29.32,East,90,8.0,8.0,81,0.00,CLR,,0.00,WeatherDisplay:10.37,2013-02-25 12:24:00,
2013-02-25 06:29:00,26.8,21.4,29.32,East,90,8.0,8.0,80,0.00,CLR,,0.00,WeatherDisplay:10.37,2013-02-25 12:29:00,
2013-02-25 06:34:00,26.6,21.3,29.32,East,92,8.0,8.0,80,0.00,CLR,,0.00,WeatherDisplay:10.37,2013-02-25 12:34:00,
2013-02-25 06:39:00,26.4,21.1,29.32,East,93,8.0,8.0,80,0.00,CLR,,0.00,WeatherDisplay:10.37,2013-02-25 12:39:00,
2013-02-25 06:50:00,27.0,21.6,29.32,East,101,8.0,8.0,80,0.00,CLR,,0.00,WeatherDisplay:10.37,2013-02-25 12:50:00,
2013-02-25 06:59:00,27.5,22.1,29.32,East,96,8.0,8.0,80,0.00,CLR,,0.00,WeatherDisplay:10.37,2013-02-25 12:59:00,
2013-02-25 07:04:00,28.2,22.8,29.32,East,91,9.0,9.0,80,0.00,CLR,,0.00,WeatherDisplay:10.37,2013-02-25 13:04:00,
2013-02-25 07:09:00,28.6,23.2,29.32,East,92,9.0,9.0,80,0.00,CLR,,0.00,WeatherDisplay:10.37,2013-02-25 13:09:00,
2013-02-25 07:19:00,30.2,24.5,29.32,East,101,9.0,9.0,79,0.00,CLR,,0.00,WeatherDisplay:10.37,2013-02-25 13:19:00,
2013-02-25 07:24:00,30.0,24.0,29.32,ESE,104,9.0,9.0,78,0.00,CLR,,0.00,WeatherDisplay:10.37,2013-02-25 13:24:00,
2013-02-25 07:29:00,29.8,23.5,29.32,East,94,9.0,9.0,77,0.00,CLR,,0.00,WeatherDisplay:10.37,2013-02-25 13:29:00,
2013-02-25 07:34:00,29.8,23.5,29.32,East,95,9.0,9.0,77,0.00,CLR,,0.00,WeatherDisplay:10.37,2013-02-25 13:34:00,
2013-02-25 07:39:00,30.0,23.4,29.32,East,97,9.0,9.0,76,0.00,CLR,,0.00,WeatherDisplay:10.37,2013-02-25 13:39:00,
2013-02-25 07:44:00,30.4,23.7,29.32,East,95,9.0,9.0,76,0.00,CLR,,0.00,WeatherDisplay:10.37,2013-02-25 13:44:00,
2013-02-25 07:49:00,30.9,24.2,29.32,East,92,9.0,9.0,76,0.00,CLR,,0.00,WeatherDisplay:10.37,2013-02-25 13:49:00,
2013-02-25 07:54:00,31.5,24.8,29.32,East,90,9.0,9.0,76,0.00,CLR,,0.00,WeatherDisplay:10.37,2013-02-25 13:54:00,
2013-02-25 08:00:00,32.4,25.0,29.35,East,91,9.0,9.0,74,0.00,CLR,,0.00,WeatherDisplay:10.37,2013-02-25 14:00:00,
2013-02-25 08:09:00,33.4,25.7,29.35,East,92,8.0,9.0,73,0.00,CLR,,0.00,WeatherDisplay:10.37,2013-02-25 14:09:00,
2013-02-25 08:15:00,33.8,25.7,29.35,East,95,8.0,8.0,72,0.00,CLR,,0.00,WeatherDisplay:10.37,2013-02-25 14:15:00,
2013-02-25 08:24:00,34.3,25.6,29.32,ESE,112,8.0,8.0,70,0.00,CLR,,0.00,WeatherDisplay:10.37,2013-02-25 14:24:00,
2013-02-25 08:29:00,34.3,25.6,29.32,ESE,121,8.0,8.0,70,0.00,CLR,,0.00,WeatherDisplay:10.37,2013-02-25 14:29:00,
2013-02-25 08:34:00,35.4,25.5,29.32,SE,124,8.0,9.0,67,0.00,CLR,,0.00,WeatherDisplay:10.37,2013-02-25 14:34:00,
2013-02-25 08:39:00,35.1,24.8,29.32,SE,128,9.0,9.0,66,0.00,CLR,,0.00,WeatherDisplay:10.37,2013-02-25 14:39:00,
2013-02-25 08:44:00,36.5,25.8,29.32,SE,131,9.0,9.0,65,0.00,CLR,,0.00,WeatherDisplay:10.37,2013-02-25 14:44:00,
2013-02-25 08:49:00,37.6,25.7,29.32,SE,125,9.0,10.0,62,0.00,CLR,,0.00,WeatherDisplay:10.37,2013-02-25 14:49:00,
2013-02-25 08:54:00,36.7,24.9,29.32,SE,125,10.0,10.0,62,0.00,CLR,,0.00,WeatherDisplay:10.37,2013-02-25 14:54:00,
2013-02-25 08:59:00,37.9,25.7,29.32,SE,127,10.0,10.0,61,0.00,CLR,,0.00,WeatherDisplay:10.37,2013-02-25 14:59:00,
2013-02-25 09:04:00,39.2,26.5,29.32,SE,128,10.0,10.0,60,0.00,CLR,,0.00,WeatherDisplay:10.37,2013-02-25 15:04:00,
2013-02-25 09:09:00,39.2,25.6,29.32,SE,128,10.0,10.0,58,0.00,CLR,,0.00,WeatherDisplay:10.37,2013-02-25 15:09:00,
2013-02-25 09:14:00,39.0,25.5,29.32,SE,136,12.0,12.0,58,0.00,CLR,,0.00,WeatherDisplay:10.37,2013-02-25 15:14:00,
2013-02-25 09:19:00,38.8,25.3,29.32,SE,138,12.0,12.0,58,0.00,CLR,,0.00,WeatherDisplay:10.37,2013-02-25 15:19:00,
2013-02-25 09:29:00,38.8,25.3,29.32,SE,135,13.0,13.0,58,0.00,CLR,,0.00,WeatherDisplay:10.37,2013-02-25 15:29:00,
2013-02-25 09:34:00,38.3,24.4,29.32,SE,135,13.0,13.0,57,0.00,CLR,,0.00,WeatherDisplay:10.37,2013-02-25 15:34:00,
2013-02-25 09:39:00,38.3,24.4,29.32,SE,135,13.0,13.0,57,0.00,CLR,,0.00,WeatherDisplay:10.37,2013-02-25 15:39:00,
2013-02-25 09:44:00,39.2,25.2,29.32,SE,135,14.0,14.0,57,0.00,CLR,,0.00,WeatherDisplay:10.37,2013-02-25 15:44:00,
2013-02-25 09:49:00,39.9,25.9,29.32,SE,135,14.0,14.0,57,0.00,CLR,,0.00,WeatherDisplay:10.37,2013-02-25 15:49:00,
2013-02-25 09:54:00,40.8,26.3,29.32,SE,135,14.0,14.0,56,0.00,CLR,,0.00,WeatherDisplay:10.37,2013-02-25 15:54:00,
2013-02-25 09:59:00,41.4,26.4,29.32,SE,135,14.0,14.0,55,0.00,CLR,,0.00,WeatherDisplay:10.37,2013-02-25 15:59:00,
2013-02-25 10:04:00,41.0,25.2,29.32,SE,135,14.0,14.0,53,0.00,CLR,,0.00,WeatherDisplay:10.37,2013-02-25 16:04:00,
2013-02-25 10:09:00,41.9,26.4,29.32,SE,135,14.0,14.0,54,0.00,CLR,,0.00,WeatherDisplay:10.37,2013-02-25 16:09:00,
2013-02-25 10:19:00,40.8,25.9,29.32,SE,135,14.0,14.0,55,0.00,CLR,,0.00,WeatherDisplay:10.37,2013-02-25 16:19:00,
2013-02-25 10:24:00,40.8,25.9,29.32,SE,135,14.0,14.0,55,0.00,CLR,,0.00,WeatherDisplay:10.37,2013-02-25 16:24:00,
2013-02-25 10:29:00,39.9,25.5,29.32,SE,136,14.0,14.0,56,0.00,CLR,,0.00,WeatherDisplay:10.37,2013-02-25 16:29:00,
2013-02-25 10:34:00,39.7,25.3,29.32,SE,135,15.0,15.0,56,0.00,CLR,,0.00,WeatherDisplay:10.37,2013-02-25 16:34:00,
2013-02-25 10:39:00,39.7,25.3,29.32,SE,135,15.0,15.0,56,0.00,CLR,,0.00,WeatherDisplay:10.37,2013-02-25 16:39:00,
2013-02-25 10:44:00,39.4,25.4,29.32,SE,135,15.0,15.0,57,0.00,CLR,,0.00,WeatherDisplay:10.37,2013-02-25 16:44:00,
2013-02-25 10:49:00,41.4,27.3,29.32,SE,135,15.0,15.0,57,0.00,CLR,,0.00,WeatherDisplay:10.37,2013-02-25 16:49:00,
2013-02-25 10:54:00,42.3,26.8,29.32,SE,135,15.0,15.0,54,0.00,CLR,,0.00,WeatherDisplay:10.37,2013-02-25 16:54:00,
2013-02-25 10:59:00,41.7,26.3,29.32,SE,135,15.0,15.0,54,0.00,CLR,,0.00,WeatherDisplay:10.37,2013-02-25 16:59:00,
2013-02-25 11:09:00,43.2,27.6,29.32,SE,135,15.0,15.0,54,0.00,CLR,,0.00,WeatherDisplay:10.37,2013-02-25 17:09:00,
2013-02-25 11:19:00,42.3,26.3,29.32,SE,135,16.0,16.0,53,0.00,CLR,,0.00,WeatherDisplay:10.37,2013-02-25 17:19:00,
2013-02-25 11:24:00,42.4,27.0,29.32,SE,135,16.0,16.0,54,0.00,CLR,,0.00,WeatherDisplay:10.37,2013-02-25 17:24:00,
2013-02-25 11:34:00,42.6,27.1,29.32,SE,135,16.0,16.0,54,0.00,CLR,,0.00,WeatherDisplay:10.37,2013-02-25 17:34:00,
2013-02-25 11:39:00,42.3,27.2,29.32,SE,135,16.0,16.0,55,0.00,CLR,,0.00,WeatherDisplay:10.37,2013-02-25 17:39:00,
2013-02-25 11:44:00,43.0,27.5,29.32,SE,135,16.0,16.0,54,0.00,CLR,,0.00,WeatherDisplay:10.37,2013-02-25 17:44:00,
2013-02-25 11:49:00,42.6,27.6,29.32,SE,135,16.0,16.0,55,0.00,CLR,,0.00,WeatherDisplay:10.37,2013-02-25 17:49:00,
2013-02-25 11:54:00,42.6,27.6,29.32,SE,135,16.0,16.0,55,0.00,CLR,,0.00,WeatherDisplay:10.37,2013-02-25 17:54:00,
2013-02-25 11:59:00,42.8,27.3,29.32,SE,135,16.0,16.0,54,0.00,CLR,,0.00,WeatherDisplay:10.37,2013-02-25 17:59:00,
2013-02-25 12:09:00,43.3,27.8,29.32,SE,135,15.0,15.0,54,0.00,CLR,,0.00,WeatherDisplay:10.37,2013-02-25 18:09:00,
2013-02-25 12:14:00,43.3,27.3,29.29,SE,135,15.0,15.0,53,0.00,CLR,,0.00,WeatherDisplay:10.37,2013-02-25 18:14:00,
2013-02-25 12:19:00,43.2,27.2,29.29,SE,135,14.0,15.0,53,0.00,CLR,,0.00,WeatherDisplay:10.37,2013-02-25 18:19:00,
2013-02-25 12:24:00,44.1,28.0,29.29,SE,135,14.0,14.0,53,0.00,CLR,,0.00,WeatherDisplay:10.37,2013-02-25 18:24:00,
2013-02-25 12:29:00,43.9,27.4,29.29,SE,135,13.0,14.0,52,0.00,CLR,,0.00,WeatherDisplay:10.37,2013-02-25 18:29:00,
2013-02-25 12:39:00,44.2,27.7,29.29,SE,135,13.0,13.0,52,0.00,CLR,,0.00,WeatherDisplay:10.37,2013-02-25 18:39:00,
2013-02-25 12:44:00,43.3,27.3,29.29,SE,128,13.0,13.0,53,0.00,CLR,,0.00,WeatherDisplay:10.37,2013-02-25 18:44:00,
2013-02-25 12:49:00,43.3,27.3,29.29,SE,125,13.0,13.0,53,0.00,CLR,,0.00,WeatherDisplay:10.37,2013-02-25 18:49:00,
2013-02-25 12:54:00,43.5,28.4,29.29,SE,125,13.0,13.0,55,0.00,CLR,,0.00,WeatherDisplay:10.37,2013-02-25 18:54:00,
2013-02-25 12:59:00,43.7,27.7,29.29,SE,125,13.0,13.0,53,0.00,CLR,,0.00,WeatherDisplay:10.37,2013-02-25 18:59:00,
2013-02-25 13:04:00,42.8,27.3,29.29,SE,125,13.0,13.0,54,0.00,CLR,,0.00,WeatherDisplay:10.37,2013-02-25 19:04:00,
2013-02-25 13:09:00,42.1,27.1,29.29,SE,125,13.0,13.0,55,0.00,CLR,,0.00,WeatherDisplay:10.37,2013-02-25 19:09:00,
2013-02-25 13:14:00,41.4,27.3,29.26,SE,125,12.0,12.0,57,0.00,CLR,,0.00,WeatherDisplay:10.37,2013-02-25 19:14:00,
2013-02-25 13:19:00,42.3,28.5,29.26,SE,125,12.0,12.0,58,0.00,CLR,,0.00,WeatherDisplay:10.37,2013-02-25 19:19:00,
2013-02-25 13:29:00,42.8,28.6,29.24,SE,125,12.0,12.0,57,0.00,CLR,,0.00,WeatherDisplay:10.37,2013-02-25 19:29:00,
2013-02-25 13:34:00,44.2,29.5,29.26,East,100,13.0,13.0,56,0.00,CLR,,0.00,WeatherDisplay:10.37,2013-02-25 19:34:00,
2013-02-25 13:39:00,44.1,27.5,29.26,East,83,13.0,13.0,52,0.00,CLR,,0.00,WeatherDisplay:10.37,2013-02-25 19:39:00,
2013-02-25 13:44:00,43.7,27.2,29.26,East,80,13.0,13.0,52,0.00,CLR,,0.00,WeatherDisplay:10.37,2013-02-25 19:44:00,
2013-02-25 13:49:00,43.9,28.3,29.26,East,80,14.0,14.0,54,0.00,CLR,,0.00,WeatherDisplay:10.37,2013-02-25 19:49:00,
2013-02-25 13:54:00,43.7,29.0,29.26,East,92,14.0,14.0,56,0.00,CLR,,0.00,WeatherDisplay:10.37,2013-02-25 19:54:00,
2013-02-25 13:59:00,44.4,29.2,29.26,ESE,110,14.0,14.0,55,0.00,CLR,,0.00,WeatherDisplay:10.37,2013-02-25 19:59:00,
2013-02-25 14:04:00,43.5,28.4,29.26,ESE,104,14.0,14.0,55,0.00,CLR,,0.00,WeatherDisplay:10.37,2013-02-25 20:04:00,
2013-02-25 14:14:00,43.2,28.5,29.24,ESE,115,14.0,14.0,56,0.00,CLR,,0.00,WeatherDisplay:10.37,2013-02-25 20:14:00,
2013-02-25 14:19:00,42.6,28.4,29.24,ESE,102,15.0,15.0,57,0.00,CLR,,0.00,WeatherDisplay:10.37,2013-02-25 20:19:00,
2013-02-25 14:24:00,42.6,28.4,29.24,East,96,15.0,15.0,57,0.00,CLR,,0.00,WeatherDisplay:10.37,2013-02-25 20:24:00,
2013-02-25 14:29:00,42.8,29.0,29.24,East,88,15.0,15.0,58,0.00,CLR,,0.00,WeatherDisplay:10.37,2013-02-25 20:29:00,
2013-02-25 14:34:00,43.2,30.2,29.20,East,83,16.0,16.0,60,0.00,CLR,,0.00,WeatherDisplay:10.37,2013-02-25 20:34:00,
2013-02-25 14:39:00,43.2,30.2,29.20,East,80,16.0,16.0,60,0.00,CLR,,0.00,WeatherDisplay:10.37,2013-02-25 20:39:00,
2013-02-25 14:44:00,42.8,29.0,29.20,East,83,16.0,17.0,58,0.00,CLR,,0.00,WeatherDisplay:10.37,2013-02-25 20:44:00,
2013-02-25 14:49:00,43.0,29.6,29.20,East,88,17.0,17.0,59,0.00,CLR,,0.00,WeatherDisplay:10.37,2013-02-25 20:49:00,
2013-02-25 14:54:00,42.4,29.1,29.20,East,89,17.0,18.0,59,0.00,CLR,,0.00,WeatherDisplay:10.37,2013-02-25 20:54:00,
2013-02-25 14:59:00,42.3,28.9,29.20,East,92,18.0,18.0,59,0.00,CLR,,0.00,WeatherDisplay:10.37,2013-02-25 20:59:00,
2013-02-25 15:04:00,42.8,29.5,29.20,ESE,103,18.0,18.0,59,0.00,CLR,,0.00,WeatherDisplay:10.37,2013-02-25 21:04:00,
2013-02-25 15:09:00,43.0,29.6,29.20,ESE,105,18.0,18.0,59,0.00,CLR,,0.00,WeatherDisplay:10.37,2013-02-25 21:09:00,
2013-02-25 15:19:00,42.4,28.7,29.20,ESE,102,18.0,19.0,58,0.00,CLR,,0.00,WeatherDisplay:10.37,2013-02-25 21:19:00,
2013-02-25 15:24:00,42.1,28.8,29.20,East,99,18.0,19.0,59,0.00,CLR,,0.00,WeatherDisplay:10.37,2013-02-25 21:24:00,
2013-02-25 15:29:00,42.1,28.8,29.20,East,90,18.0,19.0,59,0.00,CLR,,0.00,WeatherDisplay:10.37,2013-02-25 21:29:00,
2013-02-25 15:34:00,41.7,29.3,29.20,East,96,20.0,20.0,61,0.00,CLR,,0.00,WeatherDisplay:10.37,2013-02-25 21:34:00,
2013-02-25 15:39:00,41.7,29.6,29.20,ESE,103,18.0,20.0,62,0.00,CLR,,0.00,WeatherDisplay:10.37,2013-02-25 21:39:00,
2013-02-25 15:44:00,41.5,29.5,29.20,East,99,20.0,20.0,62,0.00,CLR,,0.00,WeatherDisplay:10.37,2013-02-25 21:44:00,
2013-02-25 15:49:00,41.5,29.9,29.20,ESE,103,20.0,20.0,63,0.00,CLR,,0.00,WeatherDisplay:10.37,2013-02-25 21:49:00,
2013-02-25 15:54:00,41.5,29.9,29.20,ESE,109,20.0,20.0,63,0.00,CLR,,0.00,WeatherDisplay:10.37,2013-02-25 21:54:00,
2013-02-25 15:59:00,41.4,30.1,29.20,ESE,106,20.0,20.0,64,0.00,CLR,,0.00,WeatherDisplay:10.37,2013-02-25 21:59:00,
2013-02-25 16:04:00,41.0,29.7,29.18,ESE,102,20.0,20.0,64,0.00,CLR,,0.00,WeatherDisplay:10.37,2013-02-25 22:04:00,
2013-02-25 16:09:00,41.0,29.7,29.18,East,99,20.0,20.0,64,0.00,CLR,,0.00,WeatherDisplay:10.37,2013-02-25 22:09:00,
2013-02-25 16:14:00,40.8,30.0,29.18,East,95,20.0,20.0,65,0.00,CLR,,0.00,WeatherDisplay:10.37,2013-02-25 22:14:00,
2013-02-25 16:19:00,40.5,29.6,29.18,East,95,20.0,20.0,65,0.00,CLR,,0.00,WeatherDisplay:10.37,2013-02-25 22:19:00,
2013-02-25 16:24:00,40.5,29.6,29.18,East,95,21.0,21.0,65,0.00,CLR,,0.00,WeatherDisplay:10.37,2013-02-25 22:24:00,
2013-02-25 16:29:00,40.3,29.8,29.18,East,95,21.0,21.0,66,0.00,CLR,,0.00,WeatherDisplay:10.37,2013-02-25 22:29:00,
2013-02-25 16:34:00,40.3,29.8,29.18,East,97,21.0,21.0,66,0.00,CLR,,0.00,WeatherDisplay:10.37,2013-02-25 22:34:00,
2013-02-25 16:39:00,40.1,29.6,29.15,East,95,21.0,21.0,66,0.00,CLR,,0.00,WeatherDisplay:10.37,2013-02-25 22:39:00,
2013-02-25 16:44:00,40.1,29.6,29.15,East,90,21.0,21.0,66,0.00,CLR,,0.00,WeatherDisplay:10.37,2013-02-25 22:44:00,
2013-02-25 16:49:00,40.1,29.6,29.15,East,99,21.0,21.0,66,0.00,CLR,,0.00,WeatherDisplay:10.37,2013-02-25 22:49:00,
2013-02-25 16:54:00,40.1,29.6,29.15,East,98,21.0,21.0,66,0.00,CLR,,0.00,WeatherDisplay:10.37,2013-02-25 22:54:00,
2013-02-25 16:59:00,39.9,29.5,29.15,East,95,21.0,21.0,66,0.00,CLR,,0.00,WeatherDisplay:10.37,2013-02-25 22:59:00,
2013-02-25 17:04:00,39.7,29.3,29.15,East,92,21.0,21.0,66,0.00,CLR,,0.00,WeatherDisplay:10.37,2013-02-25 23:04:00,
2013-02-25 17:09:00,39.7,29.3,29.15,East,92,21.0,21.0,66,0.00,CLR,,0.00,WeatherDisplay:10.37,2013-02-25 23:09:00,
2013-02-25 17:14:00,39.6,29.5,29.15,East,90,20.0,20.0,67,0.00,CLR,,0.00,WeatherDisplay:10.37,2013-02-25 23:14:00,
2013-02-25 17:19:00,39.4,29.3,29.15,East,90,20.0,20.0,67,0.00,CLR,,0.00,WeatherDisplay:10.37,2013-02-25 23:19:00,
2013-02-25 17:24:00,39.4,29.3,29.15,East,93,20.0,20.0,67,0.00,CLR,,0.00,WeatherDisplay:10.37,2013-02-25 23:24:00,
2013-02-25 17:29:00,39.2,29.2,29.15,East,85,20.0,20.0,67,0.00,CLR,,0.00,WeatherDisplay:10.37,2013-02-25 23:29:00,
2013-02-25 17:34:00,39.2,29.5,29.15,East,85,18.0,20.0,68,0.00,CLR,,0.00,WeatherDisplay:10.37,2013-02-25 23:34:00,
2013-02-25 17:39:00,39.4,29.7,29.15,East,89,18.0,19.0,68,0.00,CLR,,0.00,WeatherDisplay:10.37,2013-02-25 23:39:00,
2013-02-25 17:44:00,39.0,29.7,29.15,East,87,18.0,19.0,69,0.00,CLR,,0.00,WeatherDisplay:10.37,2013-02-25 23:44:00,
2013-02-25 17:49:00,38.8,29.5,29.15,East,87,18.0,19.0,69,0.00,CLR,,0.00,WeatherDisplay:10.37,2013-02-25 23:49:00,
2013-02-25 17:54:00,38.7,29.4,29.15,East,84,18.0,19.0,69,0.00,CLR,,0.00,WeatherDisplay:10.37,2013-02-25 23:54:00,
2013-02-25 17:59:00,38.5,29.2,29.15,East,85,18.0,19.0,69,0.00,CLR,,0.00,WeatherDisplay:10.37,2013-02-25 23:59:00,
2013-02-25 18:09:00,37.9,29.0,29.15,East,83,18.0,18.0,70,0.00,CLR,,0.00,WeatherDisplay:10.37,2013-02-26 00:09:00,
2013-02-25 18:14:00,37.6,28.7,29.12,East,84,18.0,18.0,70,0.00,CLR,,0.00,WeatherDisplay:10.37,2013-02-26 00:14:00,
2013-02-25 18:19:00,37.8,28.9,29.12,East,81,18.0,19.0,70,0.00,CLR,,0.00,WeatherDisplay:10.37,2013-02-26 00:19:00,
2013-02-25 18:24:00,37.4,28.9,29.12,East,86,18.0,19.0,71,0.00,CLR,,0.00,WeatherDisplay:10.37,2013-02-26 00:24:00,
2013-02-25 18:29:00,37.4,28.9,29.12,East,89,20.0,20.0,71,0.00,CLR,,0.00,WeatherDisplay:10.37,2013-02-26 00:29:00,
2013-02-25 18:34:00,37.6,28.7,29.12,East,91,20.0,20.0,70,0.00,CLR,,0.00,WeatherDisplay:10.37,2013-02-26 00:34:00,
2013-02-25 18:39:00,37.6,28.7,29.12,East,92,20.0,20.0,70,0.00,CLR,,0.00,WeatherDisplay:10.37,2013-02-26 00:39:00,
2013-02-25 18:44:00,37.4,28.2,29.12,East,92,20.0,20.0,69,0.00,CLR,,0.00,WeatherDisplay:10.37,2013-02-26 00:44:00,
2013-02-25 18:49:00,37.4,28.2,29.12,East,90,20.0,20.0,69,0.00,CLR,,0.00,WeatherDisplay:10.37,2013-02-26 00:49:00,
2013-02-25 18:54:00,37.4,28.2,29.12,East,92,21.0,21.0,69,0.00,CLR,,0.00,WeatherDisplay:10.37,2013-02-26 00:54:00,
2013-02-25 18:59:00,37.2,28.0,29.12,East,91,21.0,21.0,69,0.00,CLR,,0.00,WeatherDisplay:10.37,2013-02-26 00:59:00,
2013-02-25 19:04:00,37.0,27.8,29.12,East,87,21.0,21.0,69,0.00,CLR,,0.00,WeatherDisplay:10.37,2013-02-26 01:04:00,
2013-02-25 19:14:00,37.2,28.0,29.12,East,94,21.0,21.0,69,0.00,CLR,,0.00,WeatherDisplay:10.37,2013-02-26 01:14:00,
2013-02-25 19:24:00,37.2,27.6,29.12,East,96,21.0,21.0,68,0.00,CLR,,0.00,WeatherDisplay:10.37,2013-02-26 01:24:00,
2013-02-25 19:29:00,37.2,27.6,29.12,ESE,103,22.0,22.0,68,0.00,CLR,,0.00,WeatherDisplay:10.37,2013-02-26 01:29:00,
2013-02-25 19:34:00,37.2,27.6,29.12,ESE,111,22.0,22.0,68,0.00,SCT,,0.00,WeatherDisplay:10.37,2013-02-26 01:34:00,
2013-02-25 19:39:00,37.0,27.5,29.12,ESE,112,22.0,22.0,68,0.00,SCT,,0.00,WeatherDisplay:10.37,2013-02-26 01:39:00,
2013-02-25 19:44:00,36.9,27.3,29.12,ESE,115,22.0,22.0,68,0.00,SCT,,0.00,WeatherDisplay:10.37,2013-02-26 01:44:00,
2013-02-25 19:49:00,37.0,27.5,29.12,ESE,111,23.0,23.0,68,0.00,BKN,,0.00,WeatherDisplay:10.37,2013-02-26 01:49:00,
2013-02-25 19:54:00,37.0,27.5,29.12,ESE,110,23.0,23.0,68,0.00,BKN,,0.00,WeatherDisplay:10.37,2013-02-26 01:54:00,
2013-02-25 19:59:00,36.9,27.6,29.12,ESE,109,23.0,23.0,69,0.00,BKN,,0.00,WeatherDisplay:10.37,2013-02-26 01:59:00,
2013-02-25 20:04:00,37.2,28.0,29.12,ESE,111,23.0,23.0,69,0.00,BKN,,0.00,WeatherDisplay:10.37,2013-02-26 02:04:00,
2013-02-25 20:09:00,36.7,27.5,29.12,ESE,108,23.0,23.0,69,0.00,BKN,,0.00,WeatherDisplay:10.37,2013-02-26 02:09:00,
2013-02-25 20:14:00,36.9,27.6,29.12,ESE,105,23.0,23.0,69,0.00,BKN,,0.00,WeatherDisplay:10.37,2013-02-26 02:14:00,
2013-02-25 20:19:00,37.0,27.8,29.12,ESE,107,24.0,24.0,69,0.00,BKN,,0.00,WeatherDisplay:10.37,2013-02-26 02:19:00,
2013-02-25 20:24:00,36.9,27.6,29.12,ESE,110,24.0,24.0,69,0.00,BKN,,0.00,WeatherDisplay:10.37,2013-02-26 02:24:00,
2013-02-25 20:29:00,36.9,27.6,29.12,ESE,108,24.0,24.0,69,0.00,BKN,,0.00,WeatherDisplay:10.37,2013-02-26 02:29:00,
2013-02-25 20:34:00,36.9,27.6,29.12,ESE,108,24.0,24.0,69,0.00,OVC,,0.00,WeatherDisplay:10.37,2013-02-26 02:34:00,
2013-02-25 20:39:00,36.7,27.5,29.12,ESE,109,24.0,24.0,69,0.00,OVC,,0.00,WeatherDisplay:10.37,2013-02-26 02:39:00,
2013-02-25 20:44:00,36.7,27.5,29.12,ESE,105,24.0,24.0,69,0.00,OVC,,0.00,WeatherDisplay:10.37,2013-02-26 02:44:00,
2013-02-25 20:49:00,36.7,27.5,29.12,East,98,23.0,24.0,69,0.00,BKN,,0.00,WeatherDisplay:10.37,2013-02-26 02:49:00,
2013-02-25 20:54:00,36.7,27.5,29.12,East,95,23.0,23.0,69,0.00,BKN,,0.00,WeatherDisplay:10.37,2013-02-26 02:54:00,
2013-02-25 20:59:00,36.5,27.3,29.12,East,86,23.0,23.0,69,0.00,BKN,,0.00,WeatherDisplay:10.37,2013-02-26 02:59:00,
2013-02-25 21:04:00,36.3,27.5,29.12,East,89,23.0,23.0,70,0.00,BKN,,0.00,WeatherDisplay:10.37,2013-02-26 03:04:00,
2013-02-25 21:09:00,36.5,27.6,29.15,East,87,22.0,23.0,70,0.00,BKN,,0.00,WeatherDisplay:10.37,2013-02-26 03:09:00,
2013-02-25 21:14:00,36.5,27.6,29.15,East,82,22.0,22.0,70,0.00,BKN,,0.00,WeatherDisplay:10.37,2013-02-26 03:14:00,
2013-02-25 21:19:00,36.3,27.5,29.15,East,90,21.0,22.0,70,0.00,OVC,,0.00,WeatherDisplay:10.37,2013-02-26 03:19:00,
2013-02-25 21:24:00,36.5,27.6,29.15,East,90,21.0,21.0,70,0.00,OVC,,0.00,WeatherDisplay:10.37,2013-02-26 03:24:00,
2013-02-25 21:29:00,36.3,27.5,29.15,East,90,20.0,21.0,70,0.00,OVC,,0.00,WeatherDisplay:10.37,2013-02-26 03:29:00,
2013-02-25 21:34:00,36.5,27.3,29.12,ENE,76,20.0,20.0,69,0.00,OVC,,0.00,WeatherDisplay:10.37,2013-02-26 03:34:00,
2013-02-25 21:39:00,36.5,27.3,29.12,ENE,76,20.0,20.0,69,0.00,OVC,,0.00,WeatherDisplay:10.37,2013-02-26 03:39:00,
2013-02-25 21:44:00,36.5,27.3,29.12,East,86,20.0,20.0,69,0.00,OVC,,0.00,WeatherDisplay:10.37,2013-02-26 03:44:00,
2013-02-25 21:49:00,36.5,27.3,29.12,East,92,20.0,20.0,69,0.00,OVC,,0.00,WeatherDisplay:10.37,2013-02-26 03:49:00,
2013-02-25 21:54:00,36.5,27.3,29.12,East,92,20.0,20.0,69,0.00,OVC,,0.00,WeatherDisplay:10.37,2013-02-26 03:54:00,
2013-02-25 21:59:00,36.5,27.3,29.09,East,86,20.0,20.0,69,0.00,OVC,,0.00,WeatherDisplay:10.37,2013-02-26 03:59:00,
2013-02-25 22:04:00,36.3,27.1,29.09,East,93,21.0,21.0,69,0.00,OVC,,0.00,WeatherDisplay:10.37,2013-02-26 04:04:00,
2013-02-25 22:09:00,36.3,27.1,29.09,East,96,21.0,21.0,69,0.00,OVC,,0.00,WeatherDisplay:10.37,2013-02-26 04:09:00,
2013-02-25 22:14:00,36.5,26.9,29.09,ESE,103,21.0,21.0,68,0.00,OVC,,0.00,WeatherDisplay:10.37,2013-02-26 04:14:00,
2013-02-25 22:19:00,36.5,26.9,29.09,East,101,21.0,21.0,68,0.00,OVC,,0.00,WeatherDisplay:10.37,2013-02-26 04:19:00,
2013-02-25 22:24:00,36.5,26.9,29.06,East,95,21.0,21.0,68,0.00,OVC,,0.00,WeatherDisplay:10.37,2013-02-26 04:24:00,
2013-02-25 22:29:00,36.7,26.7,29.06,East,99,22.0,22.0,67,0.00,OVC,,0.00,WeatherDisplay:10.37,2013-02-26 04:29:00,
2013-02-25 22:34:00,36.7,26.7,29.06,East,101,22.0,22.0,67,0.00,OVC,,0.00,WeatherDisplay:10.37,2013-02-26 04:34:00,
2013-02-25 22:39:00,36.7,26.7,29.06,East,98,22.0,22.0,67,0.00,OVC,,0.00,WeatherDisplay:10.37,2013-02-26 04:39:00,
2013-02-25 22:44:00,36.5,26.6,29.06,East,99,23.0,23.0,67,0.00,OVC,,0.00,WeatherDisplay:10.37,2013-02-26 04:44:00,
2013-02-25 22:49:00,36.3,26.8,29.06,ESE,111,24.0,24.0,68,0.00,OVC,,0.00,WeatherDisplay:10.37,2013-02-26 04:49:00,
2013-02-25 22:54:00,36.3,26.8,29.06,ESE,109,24.0,24.0,68,0.00,OVC,,0.00,WeatherDisplay:10.37,2013-02-26 04:54:00,
2013-02-25 22:59:00,36.1,26.6,29.06,ESE,107,24.0,24.0,68,0.00,OVC,,0.00,WeatherDisplay:10.37,2013-02-26 04:59:00,
2013-02-25 23:04:00,35.6,26.4,29.03,ESE,110,24.0,24.0,69,0.00,-SN,,0.00,WeatherDisplay:10.37,2013-02-26 05:04:00,
2013-02-25 23:09:00,35.6,26.8,29.03,ESE,113,24.0,24.0,70,0.00,-SN,,0.00,WeatherDisplay:10.37,2013-02-26 05:09:00,
2013-02-25 23:14:00,35.2,27.1,29.03,ESE,121,24.0,24.0,72,0.00,-SN,,0.00,WeatherDisplay:10.37,2013-02-26 05:14:00,
2013-02-25 23:19:00,35.1,27.3,29.03,ESE,121,24.0,24.0,73,0.00,-SN,,0.00,WeatherDisplay:10.37,2013-02-26 05:19:00,
2013-02-25 23:24:00,35.1,27.3,29.03,ESE,120,23.0,24.0,73,0.00,-SN,,0.00,WeatherDisplay:10.37,2013-02-26 05:24:00,
2013-02-25 23:29:00,35.1,27.6,29.03,ESE,122,23.0,23.0,74,0.00,-SN,,0.00,WeatherDisplay:10.37,2013-02-26 05:29:00,
2013-02-25 23:34:00,35.1,27.6,29.03,ESE,117,23.0,23.0,74,0.00,-SN,,0.00,WeatherDisplay:10.37,2013-02-26 05:34:00,
2013-02-25 23:39:00,35.1,27.6,29.03,ESE,115,23.0,23.0,74,0.00,-SN,,0.00,WeatherDisplay:10.37,2013-02-26 05:39:00,
2013-02-25 23:44:00,35.1,27.6,29.03,ESE,108,22.0,22.0,74,0.00,-SN,,0.00,WeatherDisplay:10.37,2013-02-26 05:44:00,
2013-02-25 23:49:00,35.1,27.6,29.03,ESE,113,22.0,22.0,74,0.00,-SN,,0.00,WeatherDisplay:10.37,2013-02-26 05:49:00,
2013-02-25 23:54:00,35.1,27.6,29.03,ESE,115,22.0,22.0,74,0.00,-SN,,0.00,WeatherDisplay:10.37,2013-02-26 05:54:00,
2013-02-25 23:59:00,34.7,27.6,29.03,ESE,110,22.0,22.0,75,0.00,-SN,,0.00,WeatherDisplay:10.37,2013-02-26 05:59:00,